Probability
24 25 26 27 29 27 23 19 17 15 14 13 13 11 9 9 9 7 4 2 2 1 1 1 2 4 3 2 2 2 1 1 0 0 0 1 1 1 1 1 0 0 0
25 26 27 29 31 30 25 22 20 17 14 12 12 10 9 9 9 7 5 4 3 3 3 2 1 1 1 1 1 1 1 1 1 0 1 2 2 2 3 2 1 1 1
26 28 30 30 30 28 24 22 22 20 16 13 11 9 7 7 7 7 6 6 6 5 4 3 1 0 0 0 0 0 1 1 1 1 1 2 2 3 4 3 2 3 3
29 31 31 28 26 24 23 22 22 21 18 14 11 8 7 6 6 6 6 6 7 7 5 3 2 0 0 0 0 0 1 2 1 1 0 1 2 3 4 5 5 5 5
32 33 32 29 25 23 25 25 23 20 17 14 10 7 6 6 6 6 6 6 7 8 7 4 2 0 0 0 0 0 1 1 1 1 0 1 2 4 6 6 5 5 5
34 34 33 30 27 26 26 27 25 21 18 15 11 7 6 5 4 3 4 5 6 6 6 4 2 0 0 0 0 0 0 0 1 1 0 0 1 4 5 5 4 3 3
33 32 30 28 28 27 27 27 26 22 20 17 13 10 8 4 2 1 1 3 3 3 3 4 3 1 0 0 1 1 1 1 1 1 0 0 1 2 2 2 3 3 2
28 27 25 24 25 25 24 24 23 21 19 18 15 13 10 5 1 0 0 1 2 2 4 5 5 3 1 0 1 2 2 2 1 0 0 0 0 0 0 1 2 2 2
22 23 22 20 19 19 18 18 19 19 17 16 15 14 13 8 3 0 0 1 4 6 7 7 5 3 1 0 1 2 3 2 1 0 0 0 0 0 0 1 2 2 1
19 20 19 17 15 14 13 14 16 17 16 15 15 15 15 11 4 0 1 3 7 9 11 10 6 2 0 0 1 2 1 1 0 0 0 0 0 0 0 1 2 2 1
15 15 13 12 11 10 11 14 15 16 16 15 15 15 15 12 6 1 1 3 6 10 12 11 7 2 0 0 1 1 1 0 0 0 0 0 0 0 0 1 2 2 1
15 14 12 10 10 10 12 14 14 14 15 15 14 14 14 12 7 2 1 1 3 7 9 8 5 2 0 0 0 0 0 0 0 0 0 0 0 0 2 3 4 3 3
21 19 16 13 13 14 14 13 11 11 11 11 11 12 13 11 9 5 2 1 2 4 5 4 1 0 0 0 0 0 0 0 0 0 0 0 0 2 4 6 5 4 4
24 23 19 16 16 16 14 11 9 9 9 8 11 12 13 13 11 7 5 3 3 2 2 1 0 0 0 0 0 0 0 0 0 1 1 1 1 3 6 5 3 2 2
24 23 20 17 18 17 13 9 7 7 6 7 9 11 12 11 9 6 6 5 3 2 1 1 2 2 2 1 1 1 1 1 2 2 2 1 1 3 4 4 3 2 2
23 23 21 20 20 16 12 9 6 4 3 3 4 5 6 5 3 2 2 2 2 1 1 3 5 5 5 4 4 3 4 4 4 3 2 1 2 2 2 3 4 4 3
21 20 21 22 21 16 12 10 7 4 1 1 0 0 1 1 0 0 0 0 0 0 1 5 7 8 7 6 6 6 6 6 5 4 3 2 3 3 2 3 5 5 3
18 17 19 20 18 15 13 12 10 7 4 2 1 0 0 0 0 0 0 0 0 0 1 3 6 6 6 6 7 7 8 7 6 5 4 3 3 3 2 2 3 3 2
14 14 15 15 15 14 13 13 12 10 7 5 3 2 1 0 0 0 0 0 0 0 1 2 3 3 3 4 5 6 6 6 5 4 3 3 3 3 3 3 3 3 2
10 8 9 11 12 12 12 11 10 10 8 7 6 4 2 1 1 1 0 0 0 0 1 2 2 2 1 1 3 3 3 3 4 3 3 3 3 3 3 3 3 3 3
6 5 5 8 9 10 9 9 8 9 9 8 6 5 3 3 2 2 1 1 0 0 1 2 2 2 1 0 1 1 1 1 3 3 3 3 3 3 3 3 2 2 2
5 5 5 6 6 6 7 8 8 8 8 6 4 3 3 2 2 2 2 1 0 0 0 1 1 1 1 0 0 0 0 1 2 3 3 3 2 2 2 1 1 1 1
6 5 5 4 4 3 4 6 6 6 5 3 1 1 1 1 1 1 1 1 0 0 0 0 0 0 0 0 0 0 0 0 1 2 2 1 1 1 1 1 1 1 0
7 6 5 3 3 3 3 4 4 3 2 1 0 0 0 0 0 0 0 0 0 0 0 0 0 0 0 1 1 1 0 0 0 1 1 0 0 1 2 2 2 1 1
6 6 5 4 3 3 3 3 2 1 1 0 0 0 0 0 0 0 0 0 0 0 0 0 0 0 0 1 2 2 1 0 0 0 0 0 0 1 1 1 1 1 0
4 4 4 4 3 3 3 3 1 0 0 0 0 0 0 0 0 0 0 0 0 0 0 0 0 0 0 0 1 2 1 0 0 0 0 0 0 0 0 0 0 0 0
Wind_Speed
13 12 11 11 11 10 9 9 9 8 8 9 9 9 9 8 8 7 7 6 7 6 5 5 5 4 3 3 3 3 3 3 4 2 2 2 2 4 2 3 4 6 6
12 12 12 11 11 11 10 9 9 9 9 9 9 9 9 8 8 8 8 7 7 7 6 5 6 4 4 4 3 4 3 3 5 3 2 3 4 4 3 5 5 5 4
12 12 12 12 12 11 10 10 10 9 9 9 9 9 9 8 8 8 7 7 7 6 6 6 6 5 5 4 4 4 4 4 4 4 4 2 3 3 4 6 6 4 7
12 12 12 12 12 11 10 10 10 9 9 9 9 9 8 8 8 8 8 7 7 6 6 6 6 6 6 6 5 5 4 4 4 5 4 3 4 3 4 5 5 4 5
11 11 11 11 11 10 10 10 9 9 9 9 9 9 8 8 8 8 8 8 7 7 7 7 7 5 3 4 4 4 5 5 5 5 5 4 4 3 4 4 4 4 4
11 11 10 10 11 10 10 10 9 9 9 9 9 9 9 7 7 7 7 7 7 8 7 7 7 8 7 7 6 5 5 6 6 5 5 4 4 5 4 5 5 5 4
10 10 10 11 10 10 10 10 9 9 9 9 9 9 9 7 9 10 9 7 7 7 7 7 7 6 8 8 9 10 9 8 7 7 8 6 5 4 5 6 5 6 6
9 9 9 9 9 9 9 9 9 8 8 8 8 8 8 8 10 11 10 10 8 8 8 8 8 7 7 7 7 8 8 8 9 9 7 7 6 4 5 7 7 7 8
9 9 9 9 9 9 9 8 8 8 7 7 8 8 8 8 10 12 11 9 8 9 8 8 8 8 5 5 8 8 7 6 5 5 4 4 4 4 5 6 6 7 7
8 8 8 8 8 8 8 8 7 7 7 7 8 8 8 8 10 12 12 8 7 7 7 7 6 6 5 7 8 7 7 6 5 5 6 7 8 7 8 8 8 7 7
7 7 8 8 7 7 7 7 7 7 7 7 7 7 8 7 10 12 12 8 7 7 6 6 5 8 7 7 7 6 5 5 6 6 6 7 7 6 7 7 7 7 8
7 7 7 7 7 6 7 7 7 7 7 7 6 7 6 6 6 9 12 11 7 6 5 4 3 9 8 7 6 5 4 5 7 6 6 6 6 5 5 5 6 7 7
7 7 7 7 6 6 6 6 6 6 6 6 6 6 5 5 5 7 9 10 8 6 3 1 2 6 7 7 7 6 6 6 6 6 6 5 5 4 4 4 6 6 9
7 6 6 6 6 5 4 4 4 4 5 5 5 5 4 4 4 5 6 7 8 7 5 4 4 4 4 3 4 6 5 5 5 5 5 5 5 4 5 5 6 6 7
6 6 6 6 5 5 4 2 1 2 1 1 2 2 3 3 1 1 3 4 4 5 5 5 5 5 5 4 4 4 4 4 5 5 5 5 5 5 5 5 5 6 7
5 5 5 5 5 5 5 5 8 6 8 8 7 3 3 4 5 5 3 3 3 2 3 3 3 3 4 4 4 4 4 3 4 4 4 5 5 5 5 5 5 6 6
4 4 3 4 5 5 5 5 5 5 9 9 8 7 6 5 5 4 4 3 2 3 3 2 2 2 2 2 2 2 2 2 2 4 4 4 5 5 5 5 5 6 6
4 5 4 4 4 4 4 4 4 4 4 4 5 6 6 6 6 4 4 4 3 2 1 1 1 0 1 1 1 2 2 2 2 3 4 4 4 5 5 6 6 6 7
4 4 4 4 4 4 4 4 4 4 4 4 3 4 5 5 5 4 2 1 2 1 1 1 1 1 1 1 1 2 2 2 3 3 3 4 5 5 5 6 7 6 7
5 7 5 5 5 4 4 4 4 4 4 4 3 3 3 3 3 3 2 1 1 1 1 1 1 2 2 2 2 2 3 3 3 3 4 4 4 5 6 7 7 7 7
5 7 7 5 5 5 5 5 5 4 4 4 4 5 4 2 3 3 2 2 3 3 3 3 3 2 2 2 2 3 4 3 3 4 4 5 5 6 6 7 7 7 7
6 6 6 6 6 6 5 5 5 5 5 6 5 5 4 4 4 4 4 4 4 4 3 3 3 3 3 3 3 4 4 4 5 5 6 6 6 6 6 6 7 7 7
7 7 7 7 7 7 6 6 6 6 6 6 6 5 5 6 7 6 6 6 5 4 4 4 4 4 4 4 4 4 4 5 5 7 7 6 6 6 6 7 8 8 8
8 8 8 8 7 7 7 7 7 7 7 7 6 6 7 7 7 7 6 6 5 5 5 4 4 5 6 5 4 4 5 7 8 6 8 7 7 7 6 7 7 8 8
9 9 8 8 8 7 7 7 7 7 7 7 7 7 7 6 6 6 6 5 6 5 5 5 4 4 6 6 6 6 6 7 6 8 8 7 7 8 7 8 7 7 7
9 9 8 8 8 7 7 7 7 8 7 7 7 6 6 6 6 6 5 5 5 5 5 4 5 6 6 6 7 7 5 5 6 7 8 7 7 7 7 7 8 7 7
Wind_Direction
191 192 192 191 191 192 195 196 193 191 190 194 192 194 195 196 197 203 211 194 207 205 209 208 218 241 235 226 228 237 243 254 262 248 195 155 206 266 204 239 232 231 204
187 187 188 188 189 191 193 196 192 191 191 192 193 194 196 196 198 204 209 202 206 207 207 209 214 209 219 250 248 246 244 258 262 268 240 192 203 229 236 257 254 248 261
184 186 186 188 188 191 191 192 191 190 188 189 191 195 198 197 198 204 207 205 208 209 208 211 214 214 219 223 239 242 236 228 242 252 241 219 227 228 239 245 252 261 269
184 186 186 188 188 188 188 187 187 189 188 189 192 196 197 199 199 202 204 205 206 210 213 217 216 216 217 220 224 235 248 251 235 250 248 225 225 215 246 254 252 233 263
184 185 186 187 187 186 184 185 187 192 193 191 194 196 198 199 200 199 204 205 207 210 213 218 217 218 237 246 257 237 233 244 238 238 243 240 234 233 250 264 270 270 251
185 188 184 185 185 184 183 183 185 190 193 193 197 199 201 205 171 186 214 209 210 214 216 216 212 205 206 218 249 269 278 259 263 265 254 253 257 256 264 273 279 279 276
184 184 182 184 184 183 182 182 186 188 191 197 198 203 205 195 169 184 206 222 218 219 218 219 227 204 202 217 211 219 234 246 260 271 273 274 269 264 270 269 273 284 292
182 181 178 184 184 181 181 183 186 189 193 197 198 203 206 195 178 188 197 219 227 223 221 220 227 228 218 226 233 227 228 218 218 230 255 266 276 287 268 269 276 266 264
180 180 177 181 182 180 183 185 189 192 194 198 199 202 206 195 182 188 196 216 221 224 224 223 224 225 196 206 238 242 242 235 214 224 259 279 312 300 282 269 260 262 266
181 179 175 178 181 183 186 189 192 191 194 201 203 206 207 204 184 186 199 223 220 221 217 220 217 227 191 193 230 238 239 244 253 218 219 231 240 233 226 246 260 264 273
179 172 172 176 181 183 184 189 190 192 195 203 202 205 207 206 183 186 198 228 230 227 224 219 199 177 191 198 225 238 242 261 258 251 243 237 232 232 225 227 244 263 274
174 170 170 175 181 179 183 188 190 192 193 199 205 210 205 197 193 188 195 216 250 241 239 231 180 160 179 196 214 229 237 249 253 253 252 250 248 245 241 244 245 257 267
167 169 171 174 180 178 181 183 185 192 201 201 201 207 203 193 180 178 191 205 219 235 240 146 125 155 175 193 210 222 227 237 248 253 256 259 261 263 263 249 246 246 254
165 163 163 164 171 169 175 181 188 196 203 205 205 207 200 191 191 181 186 190 197 209 219 188 177 183 208 237 204 206 226 246 256 258 261 263 264 258 255 262 262 259 259
163 163 165 163 156 142 124 78 127 91 29 252 217 213 210 193 169 151 202 189 192 189 194 202 207 201 203 211 220 222 222 223 234 253 266 272 271 267 265 267 270 273 272
158 159 160 153 142 139 134 110 62 61 61 55 41 35 68 74 94 97 83 61 68 110 192 207 208 215 220 219 218 215 219 234 247 250 256 264 270 272 271 269 268 270 276
145 144 148 139 137 146 147 141 126 88 69 62 55 55 59 71 84 98 110 105 111 150 187 215 221 218 230 243 247 246 246 247 265 269 270 272 276 278 279 278 276 277 280
125 119 122 121 129 136 135 134 134 128 117 97 75 74 76 75 75 84 121 133 125 163 212 219 217 258 282 275 270 267 270 264 255 267 275 281 282 282 283 283 281 282 284
110 113 117 118 124 123 121 121 118 116 112 105 96 86 89 96 89 72 96 92 95 108 92 63 48 33 325 307 300 291 290 290 295 284 279 284 284 281 279 281 283 282 276
94 84 90 103 107 110 108 105 101 101 99 93 86 80 91 100 91 87 84 48 42 51 56 64 52 27 17 355 334 318 298 290 289 284 286 283 280 279 278 279 283 284 281
93 92 89 91 86 86 89 89 87 89 91 90 79 58 30 78 78 72 66 54 47 41 37 34 34 29 13 356 342 325 316 314 311 305 299 291 286 282 280 281 282 281 284
90 90 88 85 82 78 79 82 84 82 79 75 72 68 35 32 57 62 58 53 47 40 31 21 14 17 11 359 346 333 325 325 325 316 306 300 296 295 292 289 288 289 287
83 86 86 84 83 82 78 74 73 72 70 67 66 63 54 49 48 47 47 45 41 38 31 23 19 18 10 1 355 345 340 341 335 326 315 307 303 299 295 294 293 292 292
75 78 81 80 77 76 74 72 69 69 67 64 62 59 57 55 53 49 43 39 37 34 28 24 24 20 13 4 358 0 8 349 330 319 317 310 304 299 297 297 297 300 301
70 72 73 74 74 73 73 71 69 68 67 64 61 58 56 55 53 50 45 40 33 30 25 21 17 14 10 7 8 10 3 338 325 320 308 301 302 302 302 299 298 300 299
73 74 74 73 72 71 71 70 69 69 68 65 61 58 55 53 50 46 41 32 21 20 14 15 13 8 1 5 10 359 335 321 315 306 299 298 299 303 308 301 301 297 295